When you browse on this site, cookies collect data to enhance your experience and personalize the content and advertising you see.
Visit our Privacy Policy to learn more. By continuing to use the site, you agree to this use of cookies and data.
EN

Hourly Weather Dahab

Today, 13 July, Monday

Time Temperature Precipitation Wind Pressure Humidity
00:00 +27°C° 0 mm 4 mps 706 mmHg 36%
01:00 +27°C° 0 mm 4 mps 706 mmHg 34%
02:00 +26°C° 0 mm 4 mps 706 mmHg 33%
03:00 +26°C° 0 mm 4 mps 706 mmHg 31%
04:00 +25°C° 0 mm 4 mps 706 mmHg 28%
05:00 +25°C° 0 mm 4 mps 706 mmHg 26%
06:00 +27°C° 0 mm 3 mps 706 mmHg 23%
07:00 +30°C° 0 mm 3 mps 706 mmHg 19%
08:00 +33°C° 0 mm 3 mps 707 mmHg 15%
09:00 +35°C° 0 mm 4 mps 707 mmHg 15%
10:00 +36°C° 0 mm 4 mps 707 mmHg 14%
11:00 +37°C° 0 mm 5 mps 707 mmHg 14%
12:00 +39°C° 0 mm 5 mps 706 mmHg 14%
13:00 +39°C° 0 mm 5 mps 706 mmHg 14%
14:00 +40°C° 0 mm 5 mps 706 mmHg 13%
15:00 +38°C° 0 mm 4 mps 706 mmHg 14%
16:00 +38°C° 0 mm 4 mps 706 mmHg 15%
17:00 +37°C° 0 mm 3 mps 705 mmHg 16%
18:00 +35°C° 0 mm 3 mps 705 mmHg 19%
19:00 +33°C° 0 mm 3 mps 705 mmHg 22%
20:00 +30°C° 0 mm 3 mps 705 mmHg 25%
21:00 +29°C° 0 mm 3 mps 706 mmHg 28%
22:00 +29°C° 0 mm 3 mps 706 mmHg 31%
23:00 +28°C° 0 mm 3 mps 706 mmHg 34%

Tomorrow, 14 July, Tuesday

Time Temperature Precipitation Wind Pressure Humidity
00:00 +27°C° 0 mm 3 mps 706 mmHg 35%
01:00 +27°C° 0 mm 3 mps 706 mmHg 35%
02:00 +26°C° 0 mm 3 mps 706 mmHg 35%
03:00 +26°C° 0 mm 3 mps 706 mmHg 35%
04:00 +26°C° 0 mm 3 mps 707 mmHg 35%
05:00 +25°C° 0 mm 3 mps 707 mmHg 35%
06:00 +28°C° 0 mm 2 mps 707 mmHg 30%
07:00 +30°C° 0 mm 2 mps 708 mmHg 26%
08:00 +34°C° 0 mm 2 mps 708 mmHg 21%
09:00 +35°C° 0 mm 3 mps 708 mmHg 22%
10:00 +36°C° 0 mm 3 mps 708 mmHg 22%
11:00 +36°C° 0 mm 4 mps 709 mmHg 22%
12:00 +37°C° 0 mm 3 mps 708 mmHg 21%
13:00 +38°C° 0 mm 3 mps 708 mmHg 20%
14:00 +38°C° 0 mm 3 mps 707 mmHg 19%
15:00 +38°C° 0 mm 3 mps 707 mmHg 19%
16:00 +38°C° 0 mm 3 mps 707 mmHg 18%
17:00 +38°C° 0 mm 3 mps 707 mmHg 18%
18:00 +35°C° 0 mm 2 mps 707 mmHg 22%
19:00 +32°C° 0 mm 2 mps 708 mmHg 27%
20:00 +29°C° 0 mm 1 mps 708 mmHg 31%
21:00 +29°C° 0 mm 1 mps 708 mmHg 31%
22:00 +29°C° 0 mm 1 mps 708 mmHg 31%
23:00 +29°C° 0 mm 2 mps 709 mmHg 30%

Day after tomorrow, 15 July, Wednesday

Time Temperature Precipitation Wind Pressure Humidity
00:00 +28°C° 0 mm 2 mps 709 mmHg 34%
01:00 +28°C° 0 mm 2 mps 709 mmHg 37%
02:00 +27°C° 0 mm 2 mps 708 mmHg 41%
03:00 +27°C° 0 mm 1 mps 709 mmHg 42%
04:00 +27°C° 0 mm 1 mps 709 mmHg 42%
05:00 +27°C° 0 mm 1 mps 709 mmHg 43%
06:00 +29°C° 0 mm 1 mps 709 mmHg 37%
07:00 +32°C° 0 mm 1 mps 710 mmHg 30%
08:00 +34°C° 0 mm 1 mps 710 mmHg 23%
09:00 +36°C° 0 mm 2 mps 710 mmHg 22%
10:00 +37°C° 0 mm 2 mps 710 mmHg 22%
11:00 +38°C° 0 mm 3 mps 710 mmHg 21%
12:00 +39°C° 0 mm 3 mps 710 mmHg 20%
13:00 +39°C° 0 mm 3 mps 709 mmHg 19%
14:00 +40°C° 0 mm 3 mps 709 mmHg 19%
15:00 +40°C° 0 mm 3 mps 709 mmHg 18%
16:00 +40°C° 0 mm 2 mps 708 mmHg 18%
17:00 +40°C° 0 mm 2 mps 708 mmHg 18%
18:00 +38°C° 0 mm 3 mps 708 mmHg 19%
19:00 +36°C° 0 mm 3 mps 709 mmHg 21%
20:00 +34°C° 0 mm 3 mps 709 mmHg 23%
21:00 +33°C° 0 mm 4 mps 709 mmHg 25%
22:00 +32°C° 0 mm 4 mps 709 mmHg 27%
23:00 +32°C° 0 mm 4 mps 709 mmHg 30%

16 July, Thursday

Time Temperature Precipitation Wind Pressure Humidity
00:00 +30°C° 0 mm 4 mps 709 mmHg 30%
01:00 +29°C° 0 mm 4 mps 708 mmHg 31%
02:00 +29°C° 0 mm 4 mps 708 mmHg 32%
03:00 +29°C° 0 mm 4 mps 708 mmHg 30%
04:00 +28°C° 0 mm 4 mps 708 mmHg 28%
05:00 +28°C° 0 mm 4 mps 708 mmHg 26%
06:00 +30°C° 0 mm 4 mps 708 mmHg 24%
07:00 +34°C° 0 mm 4 mps 708 mmHg 21%
08:00 +36°C° 0 mm 4 mps 709 mmHg 18%
09:00 +37°C° 0 mm 4 mps 709 mmHg 17%
10:00 +39°C° 0 mm 5 mps 708 mmHg 17%
11:00 +41°C° 0 mm 5 mps 708 mmHg 16%
12:00 +41°C° 0 mm 5 mps 708 mmHg 16%
13:00 +42°C° 0 mm 5 mps 707 mmHg 16%
14:00 +42°C° 0 mm 5 mps 707 mmHg 16%
15:00 +42°C° 0 mm 4 mps 706 mmHg 16%
16:00 +41°C° 0 mm 4 mps 706 mmHg 17%
17:00 +40°C° 0 mm 3 mps 706 mmHg 18%
18:00 +38°C° 0 mm 4 mps 706 mmHg 21%
19:00 +36°C° 0 mm 4 mps 706 mmHg 23%
20:00 +34°C° 0 mm 4 mps 706 mmHg 26%
21:00 +33°C° 0 mm 4 mps 706 mmHg 29%
22:00 +32°C° 0 mm 4 mps 706 mmHg 32%
23:00 +30°C° 0 mm 4 mps 706 mmHg 35%

17 July, Friday

Time Temperature Precipitation Wind Pressure Humidity
00:00 +30°C° 0 mm 4 mps 706 mmHg 36%
01:00 +29°C° 0 mm 4 mps 706 mmHg 37%
02:00 +28°C° 0 mm 4 mps 706 mmHg 38%
03:00 +28°C° 0 mm 4 mps 706 mmHg 38%
04:00 +27°C° 0 mm 4 mps 706 mmHg 38%
05:00 +27°C° 0 mm 4 mps 706 mmHg 38%
06:00 +29°C° 0 mm 4 mps 706 mmHg 34%
07:00 +32°C° 0 mm 4 mps 707 mmHg 29%
08:00 +34°C° 0 mm 4 mps 707 mmHg 25%
09:00 +36°C° 0 mm 4 mps 707 mmHg 24%
10:00 +37°C° 0 mm 4 mps 707 mmHg 23%
11:00 +38°C° 0 mm 4 mps 707 mmHg 22%
12:00 +38°C° 0 mm 4 mps 706 mmHg 22%
13:00 +39°C° 0 mm 3 mps 706 mmHg 22%
14:00 +39°C° 0 mm 3 mps 706 mmHg 21%
15:00 +39°C° 0 mm 3 mps 705 mmHg 21%
16:00 +39°C° 0 mm 2 mps 705 mmHg 21%
17:00 +39°C° 0 mm 2 mps 705 mmHg 21%
18:00 +36°C° 0 mm 2 mps 705 mmHg 24%
19:00 +34°C° 0 mm 2 mps 706 mmHg 27%
20:00 +31°C° 0 mm 1 mps 706 mmHg 30%
21:00 +30°C° 0 mm 2 mps 706 mmHg 33%
22:00 +29°C° 0 mm 2 mps 706 mmHg 35%
23:00 +28°C° 0 mm 2 mps 707 mmHg 38%

18 July, Saturday

Time Temperature Precipitation Wind Pressure Humidity
00:00 +28°C° 0 mm 2 mps 707 mmHg 40%
01:00 +27°C° 0 mm 2 mps 707 mmHg 41%
02:00 +27°C° 0 mm 3 mps 707 mmHg 43%
03:00 +26°C° 0 mm 3 mps 707 mmHg 43%
04:00 +26°C° 0 mm 3 mps 707 mmHg 44%
05:00 +26°C° 0 mm 3 mps 707 mmHg 44%
06:00 +28°C° 0 mm 3 mps 707 mmHg 39%
07:00 +30°C° 0 mm 3 mps 708 mmHg 34%
08:00 +33°C° 0 mm 3 mps 708 mmHg 29%
09:00 +34°C° 0 mm 3 mps 708 mmHg 28%
10:00 +36°C° 0 mm 3 mps 708 mmHg 27%
11:00 +37°C° 0 mm 4 mps 708 mmHg 25%
12:00 +37°C° 0 mm 3 mps 707 mmHg 24%
13:00 +38°C° 0 mm 3 mps 707 mmHg 23%
14:00 +38°C° 0 mm 3 mps 707 mmHg 22%
15:00 +38°C° 0 mm 2 mps 707 mmHg 23%
16:00 +37°C° 0 mm 2 mps 707 mmHg 24%
17:00 +37°C° 0 mm 2 mps 706 mmHg 25%
18:00 +33°C° 0 mm 1 mps 707 mmHg 30%
19:00 +31°C° 0 mm 1 mps 707 mmHg 34%
20:00 +27°C° 0 mm 0 mps 707 mmHg 39%
21:00 +26°C° 0 mm 0 mps 707 mmHg 40%
22:00 +26°C° 0 mm 0 mps 708 mmHg 42%
23:00 +27°C° 0 mm 1 mps 708 mmHg 43%
Show more